Weather History for KBVO - February, 2014

Change the Weather History Date:

Wednesday, February 26, 2014

  Actual Average Record
Temperature  
Mean Temperature 24 °F -  
Max Temperature 35 °F 58 °F 79 °F (1986)
Min Temperature 14 °F 32 °F 11 °F (1979)
Degree Days  
Heating Degree Days 40    
Moisture  
Dew Point 6 °F    
Average Humidity 52    
Maximum Humidity 74    
Minimum Humidity 25    
Precipitation  
Precipitation 0.00 in - - ()
Sea Level Pressure  
Sea Level Pressure 30.33 in    
Wind  
Wind Speed 9 mph (NW)    
Max Wind Speed 15 mph    
Max Gust Speed 29 mph    
Visibility 10 miles    
Events      
Averages and records for this station are not official NWS values.
T = Trace of Precipitation, MM = Missing Value Source: NWS Daily Summary

Daily Weather History Graph

Daily Weather History Graph

Search for Another Location

Airport or City:

Trip Planner

Search our weather history database for the weather conditions in past years. The results will help you decide how hot, cold, wet, or windy it might be!

Date:

Astronomy

Feb. 26, 2014 Rise Set
Actual Time 6:58 AM CST 6:15 PM CST
Civil Twilight 6:32 AM CST 6:41 PM CST
Nautical Twilight 6:02 AM CST 7:11 PM CST
Astronomical Twilight 5:32 AM CST 7:41 PM CST
Moon 4:42 AM CST (2/26) 3:34 PM CST (2/26)
Length of Visible Light 12h 08m
Length of Day
11h 16m
Waning Crescent, 10% of the Moon is Illuminated
Feb 26
Waning Crescent
Mar 1
New
Mar 8
First Quarter
Mar 16
Full
Mar 23
Last Quarter

Hourly Weather History & Observations

Time (CST) Temp. Windchill Dew Point Humidity Pressure Visibility Wind Dir Wind Speed Gust Speed Precip Events Conditions
12:53 AM 21.0 °F 7.6 °F 9.0 °F 60% 30.46 in 10.0 mi North 15.0 mph 28.8 mph N/A   Mostly Cloudy
1:53 AM 19.0 °F 6.1 °F 8.1 °F 62% 30.46 in 10.0 mi North 12.7 mph 20.7 mph N/A   Clear
2:53 AM 18.0 °F 4.8 °F 9.0 °F 68% 30.45 in 10.0 mi North 12.7 mph - N/A   Clear
3:53 AM 17.1 °F 5.8 °F 9.0 °F 71% 30.45 in 10.0 mi North 9.2 mph - N/A   Partly Cloudy
4:53 AM 17.1 °F 7.6 °F 9.0 °F 71% 30.45 in 10.0 mi North 6.9 mph 17.3 mph N/A   Mostly Cloudy
5:08 AM 17.6 °F 7.3 °F 10.4 °F 73% 30.43 in 10.0 mi North 8.1 mph - N/A   Partly Cloudy
5:50 AM 17.6 °F 8.2 °F 8.6 °F 68% 30.43 in 10.0 mi North 6.9 mph - N/A   Mostly Cloudy
5:53 AM 16.0 °F 8.8 °F 9.0 °F 74% 30.45 in 10.0 mi North 4.6 mph - N/A   Mostly Cloudy
6:12 AM 15.8 °F 10.2 °F 8.6 °F 73% 30.43 in 10.0 mi North 3.5 mph - N/A   Scattered Clouds
6:53 AM 14.0 °F 8.2 °F 7.0 °F 74% 30.45 in 10.0 mi NNW 3.5 mph - N/A   Clear
7:53 AM 17.1 °F 8.7 °F 7.0 °F 65% 30.43 in 10.0 mi North 5.8 mph - N/A   Clear
8:53 AM 19.0 °F 6.8 °F 5.0 °F 54% 30.45 in 10.0 mi North 11.5 mph - N/A   Clear
9:53 AM 21.9 °F 11.7 °F 1.9 °F 42% 30.45 in 10.0 mi NNE 9.2 mph 18.4 mph N/A   Clear
10:53 AM 25.0 °F 16.3 °F 1.9 °F 37% 30.43 in 10.0 mi North 8.1 mph 18.4 mph N/A   Clear
11:53 AM 26.1 °F 16.8 °F 1.0 °F 34% 30.40 in 10.0 mi WNW 9.2 mph - N/A   Clear
12:53 PM 28.0 °F 20.8 °F 1.9 °F 33% 30.34 in 10.0 mi NNW 6.9 mph - N/A   Clear
1:53 PM 30.9 °F 25.2 °F 3.0 °F 31% 30.28 in 10.0 mi Variable 5.8 mph - N/A   Clear
2:53 PM 33.1 °F - 3.0 °F 28% 30.23 in 10.0 mi Calm Calm - N/A   Clear
3:53 PM 34.0 °F - 1.9 °F 26% 30.19 in 10.0 mi Calm Calm - N/A   Clear
4:53 PM 35.1 °F 30.1 °F 1.9 °F 25% 30.16 in 10.0 mi West 5.8 mph - N/A   Clear
5:53 PM 33.1 °F 27.7 °F 1.0 °F 26% 30.15 in 10.0 mi West 5.8 mph - N/A   Clear
6:53 PM 28.0 °F 20.8 °F 1.9 °F 33% 30.17 in 10.0 mi West 6.9 mph - N/A   Clear
7:53 PM 21.9 °F 15.7 °F 5.0 °F 48% 30.16 in 10.0 mi West 4.6 mph - N/A   Clear
8:53 PM 19.0 °F 13.9 °F 6.1 °F 57% 30.17 in 10.0 mi WSW 3.5 mph - N/A   Clear
9:53 PM 19.0 °F 13.9 °F 6.1 °F 57% 30.15 in 10.0 mi WSW 3.5 mph - N/A   Clear
10:53 PM 21.9 °F 17.2 °F 7.0 °F 53% 30.14 in 10.0 mi SW 3.5 mph - N/A   Clear
11:53 PM 23.0 °F 17.0 °F 9.0 °F 55% 30.12 in 10.0 mi SW 4.6 mph - N/A   Clear